Time,TemperatureF,DewpointF,PressureIn,WindDirection,WindDirectionDegrees,WindSpeedMPH,WindSpeedGustMPH,Humidity,HourlyPrecipIn,Conditions,Clouds,dailyrainin,SoftwareType,DateUTC
2013-06-30 00:07:00,72.9,66.4,29.84,North,0,0.0,0.0,80,0.00,,,0.00,meteobridge,2013-06-30 04:07:00,
2013-06-30 00:17:00,72.5,66.7,29.84,North,0,0.0,0.0,82,0.00,,,0.00,meteobridge,2013-06-30 04:17:00,
2013-06-30 00:27:00,72.5,66.7,29.84,North,0,0.0,0.0,82,0.00,,,0.00,meteobridge,2013-06-30 04:27:00,
2013-06-30 00:37:00,72.1,66.7,29.84,North,0,0.0,0.0,83,0.00,,,0.00,meteobridge,2013-06-30 04:37:00,
2013-06-30 00:47:00,71.8,66.4,29.84,North,0,0.0,0.0,83,0.00,,,0.00,meteobridge,2013-06-30 04:47:00,
2013-06-30 00:57:00,71.6,66.6,29.84,North,0,0.0,0.0,84,0.00,,,0.00,meteobridge,2013-06-30 04:57:00,
2013-06-30 01:08:00,71.4,66.7,29.84,North,0,0.0,0.0,85,0.00,,,0.00,meteobridge,2013-06-30 05:08:00,
2013-06-30 01:18:00,71.4,67.1,29.84,North,0,0.0,0.0,86,0.00,,,0.00,meteobridge,2013-06-30 05:18:00,
2013-06-30 01:28:00,71.2,67.1,29.84,North,0,0.0,0.0,87,0.00,,,0.00,meteobridge,2013-06-30 05:28:00,
2013-06-30 01:38:00,71.2,67.1,29.84,North,0,0.0,0.0,87,0.00,,,0.00,meteobridge,2013-06-30 05:38:00,
2013-06-30 01:48:00,71.2,67.5,29.84,North,0,0.0,0.0,88,0.00,,,0.00,meteobridge,2013-06-30 05:48:00,
2013-06-30 01:58:00,71.1,67.3,29.83,North,0,0.0,0.0,88,0.00,,,0.00,meteobridge,2013-06-30 05:58:00,
2013-06-30 02:08:00,70.7,67.3,29.83,North,0,0.0,0.0,89,0.00,,,0.00,meteobridge,2013-06-30 06:08:00,
2013-06-30 02:18:00,70.5,67.1,29.83,North,0,0.0,0.0,89,0.00,,,0.00,meteobridge,2013-06-30 06:18:00,
2013-06-30 02:28:00,70.5,67.1,29.83,North,0,0.0,0.0,89,0.00,,,0.00,meteobridge,2013-06-30 06:28:00,
2013-06-30 02:38:00,70.3,67.3,29.83,North,0,0.0,0.0,90,0.00,,,0.00,meteobridge,2013-06-30 06:38:00,
2013-06-30 02:49:00,70.5,67.8,29.83,North,0,0.0,0.0,91,0.00,,,0.00,meteobridge,2013-06-30 06:49:00,
2013-06-30 02:59:00,70.3,67.6,29.83,North,0,0.0,0.0,91,0.00,,,0.00,meteobridge,2013-06-30 06:59:00,
2013-06-30 03:09:00,70.2,67.5,29.83,North,0,0.0,0.0,91,0.00,,,0.00,meteobridge,2013-06-30 07:09:00,
2013-06-30 03:19:00,70.2,67.6,29.83,West,270,0.0,0.0,92,0.00,,,0.00,meteobridge,2013-06-30 07:19:00,
2013-06-30 03:29:00,69.8,67.3,29.82,West,270,0.0,0.0,92,0.00,,,0.00,meteobridge,2013-06-30 07:29:00,
2013-06-30 03:39:00,69.8,67.3,29.82,West,270,0.0,0.0,92,0.00,,,0.00,meteobridge,2013-06-30 07:39:00,
2013-06-30 03:49:00,69.6,67.5,29.81,West,270,0.0,0.0,93,0.00,,,0.00,meteobridge,2013-06-30 07:49:00,
2013-06-30 03:59:00,69.4,67.3,29.81,West,270,0.0,0.0,93,0.00,,,0.00,meteobridge,2013-06-30 07:59:00,
2013-06-30 04:09:00,69.1,66.9,29.81,West,270,0.0,0.0,93,0.00,,,0.00,meteobridge,2013-06-30 08:09:00,
2013-06-30 04:19:00,69.1,66.9,29.82,West,270,0.0,0.0,93,0.00,,,0.00,meteobridge,2013-06-30 08:19:00,
2013-06-30 04:30:00,68.9,66.7,29.81,West,270,0.0,0.0,93,0.00,,,0.00,meteobridge,2013-06-30 08:30:00,
2013-06-30 04:40:00,68.9,66.7,29.82,West,270,0.0,0.0,93,0.00,,,0.00,meteobridge,2013-06-30 08:40:00,
2013-06-30 04:50:00,68.7,66.6,29.81,West,270,0.0,0.0,93,0.00,,,0.00,meteobridge,2013-06-30 08:50:00,
2013-06-30 05:00:00,68.4,66.2,29.82,West,270,0.0,0.0,93,0.00,,,0.00,meteobridge,2013-06-30 09:00:00,
2013-06-30 05:10:00,68.2,66.0,29.83,West,270,0.0,0.0,93,0.00,,,0.00,meteobridge,2013-06-30 09:10:00,
2013-06-30 05:20:00,68.2,66.0,29.83,West,270,0.0,0.0,93,0.00,,,0.00,meteobridge,2013-06-30 09:20:00,
2013-06-30 05:30:00,68.2,66.0,29.83,West,270,0.0,0.0,93,0.00,,,0.00,meteobridge,2013-06-30 09:30:00,
2013-06-30 05:40:00,68.0,65.8,29.83,West,270,0.0,0.0,93,0.00,,,0.00,meteobridge,2013-06-30 09:40:00,
2013-06-30 05:50:00,67.6,65.8,29.83,West,270,0.0,0.0,94,0.00,,,0.00,meteobridge,2013-06-30 09:50:00,
2013-06-30 06:01:00,67.3,65.5,29.84,West,270,0.0,0.0,94,0.00,,,0.00,meteobridge,2013-06-30 10:01:00,
2013-06-30 06:11:00,67.1,65.3,29.84,West,270,0.0,0.0,94,0.00,,,0.00,meteobridge,2013-06-30 10:11:00,
2013-06-30 06:21:00,66.9,65.5,29.84,West,270,0.0,0.0,95,0.00,,,0.00,meteobridge,2013-06-30 10:21:00,
2013-06-30 06:31:00,67.1,65.7,29.84,West,270,0.0,0.0,95,0.00,,,0.00,meteobridge,2013-06-30 10:31:00,
2013-06-30 06:41:00,67.3,65.8,29.85,West,270,0.0,0.0,95,0.00,,,0.00,meteobridge,2013-06-30 10:41:00,
2013-06-30 06:51:00,67.3,65.8,29.85,West,270,0.0,0.0,95,0.00,,,0.00,meteobridge,2013-06-30 10:51:00,
2013-06-30 07:01:00,67.5,66.2,29.85,West,270,0.0,0.0,96,0.00,,,0.00,meteobridge,2013-06-30 11:01:00,
2013-06-30 07:11:00,67.8,66.6,29.85,West,270,0.0,0.0,96,0.00,,,0.00,meteobridge,2013-06-30 11:11:00,
2013-06-30 07:21:00,68.2,66.7,29.85,West,270,0.0,0.0,95,0.00,,,0.00,meteobridge,2013-06-30 11:21:00,
2013-06-30 07:31:00,68.7,67.3,29.86,West,270,0.0,0.0,95,0.00,,,0.00,meteobridge,2013-06-30 11:31:00,
2013-06-30 07:42:00,69.6,68.2,29.86,West,270,0.0,0.0,95,0.00,,,0.00,meteobridge,2013-06-30 11:42:00,
2013-06-30 07:52:00,70.3,68.2,29.86,West,270,0.0,0.0,93,0.00,,,0.00,meteobridge,2013-06-30 11:52:00,
2013-06-30 08:02:00,71.1,68.5,29.86,North,0,0.0,0.0,92,0.00,,,0.00,meteobridge,2013-06-30 12:02:00,
2013-06-30 08:12:00,72.3,68.2,29.87,North,0,0.0,0.0,87,0.00,,,0.00,meteobridge,2013-06-30 12:12:00,
2013-06-30 08:22:00,74.1,69.3,29.87,North,0,0.0,0.0,85,0.00,,,0.00,meteobridge,2013-06-30 12:22:00,
2013-06-30 08:32:00,76.1,69.8,29.87,South,180,0.0,0.0,81,0.00,,,0.00,meteobridge,2013-06-30 12:32:00,
2013-06-30 08:42:00,75.6,67.8,29.87,North,0,0.0,0.0,77,0.00,,,0.00,meteobridge,2013-06-30 12:42:00,
2013-06-30 08:52:00,77.0,68.5,29.88,North,0,1.6,1.6,75,0.00,,,0.00,meteobridge,2013-06-30 12:52:00,
2013-06-30 09:02:00,77.4,68.4,29.88,West,270,1.6,1.6,74,0.00,,,0.00,meteobridge,2013-06-30 13:02:00,
2013-06-30 09:12:00,79.0,68.0,29.88,North,0,0.0,0.0,69,0.00,,,0.00,meteobridge,2013-06-30 13:12:00,
2013-06-30 09:23:00,81.1,67.8,29.88,East,90,0.0,0.0,64,0.00,,,0.00,meteobridge,2013-06-30 13:23:00,
2013-06-30 09:33:00,78.6,66.4,29.88,West,270,3.1,3.1,66,0.00,,,0.00,meteobridge,2013-06-30 13:33:00,
2013-06-30 09:43:00,81.3,68.4,29.88,North,0,0.0,0.0,65,0.00,,,0.00,meteobridge,2013-06-30 13:43:00,
2013-06-30 09:53:00,82.4,67.6,29.87,East,90,0.0,1.6,61,0.00,,,0.00,meteobridge,2013-06-30 13:53:00,
2013-06-30 10:03:00,84.6,67.1,29.87,North,0,1.6,1.6,56,0.00,,,0.00,meteobridge,2013-06-30 14:03:00,
2013-06-30 10:13:00,83.5,66.6,29.87,South,180,0.0,0.0,57,0.00,,,0.00,meteobridge,2013-06-30 14:13:00,
2013-06-30 10:23:00,83.1,65.3,29.87,East,90,1.6,2.2,55,0.00,,,0.00,meteobridge,2013-06-30 14:23:00,
2013-06-30 10:33:00,83.7,65.8,29.87,South,180,2.2,2.2,55,0.00,,,0.00,meteobridge,2013-06-30 14:33:00,
2013-06-30 10:43:00,86.2,65.8,29.87,SW,225,0.0,0.7,51,0.00,,,0.00,meteobridge,2013-06-30 14:43:00,
2013-06-30 10:54:00,87.1,66.2,29.87,North,0,0.0,0.0,50,0.00,,,0.00,meteobridge,2013-06-30 14:54:00,
2013-06-30 11:04:00,83.8,63.9,29.88,North,0,1.6,3.1,51,0.00,,,0.00,meteobridge,2013-06-30 15:04:00,
2013-06-30 11:14:00,84.4,63.7,29.88,South,180,3.1,3.1,50,0.00,,,0.00,meteobridge,2013-06-30 15:14:00,
2013-06-30 11:30:00,86.5,63.9,29.87,West,270,1.6,2.2,47,0.00,,,0.00,meteobridge,2013-06-30 15:30:00,
2013-06-30 11:40:00,86.2,64.8,29.88,West,270,2.2,3.1,49,0.00,,,0.00,meteobridge,2013-06-30 15:40:00,
2013-06-30 11:50:00,86.0,63.5,29.88,North,0,0.0,2.2,47,0.00,,,0.00,meteobridge,2013-06-30 15:50:00,
2013-06-30 12:00:00,87.4,63.5,29.88,North,0,2.2,2.2,45,0.00,,,0.00,meteobridge,2013-06-30 16:00:00,
2013-06-30 12:10:00,86.5,63.9,29.88,North,0,0.7,2.2,47,0.00,,,0.00,meteobridge,2013-06-30 16:10:00,
2013-06-30 12:20:00,86.0,62.8,29.88,North,0,3.1,3.8,46,0.00,,,0.00,meteobridge,2013-06-30 16:20:00,
2013-06-30 12:30:00,87.4,65.8,29.87,North,0,2.2,2.2,49,0.00,,,0.00,meteobridge,2013-06-30 16:30:00,
2013-06-30 12:40:00,87.1,64.4,29.87,South,180,0.0,0.0,47,0.00,,,0.00,meteobridge,2013-06-30 16:40:00,
2013-06-30 12:51:00,85.1,63.9,29.87,North,0,1.6,2.2,49,0.00,,,0.00,meteobridge,2013-06-30 16:51:00,
2013-06-30 13:01:00,86.4,65.5,29.87,South,180,0.7,2.2,50,0.00,,,0.00,meteobridge,2013-06-30 17:01:00,
2013-06-30 13:11:00,87.4,65.3,29.87,North,0,1.6,1.6,48,0.00,,,0.00,meteobridge,2013-06-30 17:11:00,
2013-06-30 13:21:00,84.7,63.0,29.86,North,0,2.2,2.2,48,0.00,,,0.00,meteobridge,2013-06-30 17:21:00,
2013-06-30 13:31:00,85.5,64.8,29.86,North,0,0.7,2.2,50,0.00,,,0.00,meteobridge,2013-06-30 17:31:00,
2013-06-30 13:41:00,85.3,64.6,29.86,South,180,0.0,0.0,50,0.00,,,0.00,meteobridge,2013-06-30 17:41:00,
2013-06-30 13:51:00,84.6,63.9,29.85,South,180,0.0,1.6,50,0.00,,,0.00,meteobridge,2013-06-30 17:51:00,
2013-06-30 14:01:00,83.3,62.8,29.85,South,180,3.1,3.1,50,0.00,,,0.00,meteobridge,2013-06-30 18:01:00,
2013-06-30 14:11:00,83.8,62.6,29.85,South,180,3.8,4.5,49,0.00,,,0.00,meteobridge,2013-06-30 18:11:00,
2013-06-30 14:22:00,87.8,63.9,29.84,West,270,0.0,1.6,45,0.00,,,0.00,meteobridge,2013-06-30 18:22:00,
2013-06-30 14:32:00,86.9,64.8,29.84,North,0,2.2,3.8,48,0.00,,,0.00,meteobridge,2013-06-30 18:32:00,
2013-06-30 14:42:00,87.1,63.1,29.84,South,180,2.2,3.8,45,0.00,,,0.00,meteobridge,2013-06-30 18:42:00,
2013-06-30 14:52:00,86.2,63.0,29.84,South,180,0.0,0.0,46,0.00,,,0.00,meteobridge,2013-06-30 18:52:00,
2013-06-30 15:02:00,84.6,63.3,29.84,South,180,3.1,3.1,49,0.00,,,0.00,meteobridge,2013-06-30 19:02:00,
2013-06-30 15:12:00,85.5,64.0,29.84,South,180,0.0,1.6,49,0.00,,,0.00,meteobridge,2013-06-30 19:12:00,
2013-06-30 15:22:00,87.4,64.0,29.83,South,180,0.0,0.0,46,0.00,,,0.00,meteobridge,2013-06-30 19:22:00,
2013-06-30 15:32:00,85.5,62.2,29.83,South,180,0.0,1.6,46,0.00,,,0.00,meteobridge,2013-06-30 19:32:00,
2013-06-30 15:42:00,84.4,64.2,29.84,West,270,0.0,0.0,51,0.00,,,0.00,meteobridge,2013-06-30 19:42:00,
2013-06-30 15:52:00,83.8,63.9,29.84,North,0,0.7,0.7,51,0.00,,,0.00,meteobridge,2013-06-30 19:52:00,
2013-06-30 16:03:00,84.6,63.3,29.85,West,270,0.0,0.0,49,0.00,,,0.00,meteobridge,2013-06-30 20:03:00,
2013-06-30 16:13:00,86.0,64.0,29.84,South,180,0.0,0.0,48,0.00,,,0.00,meteobridge,2013-06-30 20:13:00,
2013-06-30 16:23:00,84.9,62.4,29.84,SW,225,1.6,3.8,47,0.00,,,0.00,meteobridge,2013-06-30 20:23:00,
2013-06-30 16:33:00,84.0,61.7,29.84,South,180,1.6,3.8,47,0.00,,,0.00,meteobridge,2013-06-30 20:33:00,
2013-06-30 16:43:00,84.9,61.9,29.84,North,0,1.6,1.6,46,0.00,,,0.00,meteobridge,2013-06-30 20:43:00,
2013-06-30 16:53:00,84.9,64.2,29.84,North,0,0.0,2.2,50,0.00,,,0.00,meteobridge,2013-06-30 20:53:00,
2013-06-30 17:03:00,84.0,66.2,29.83,North,0,0.7,0.7,55,0.00,,,0.00,meteobridge,2013-06-30 21:03:00,
2013-06-30 17:13:00,84.4,66.9,29.84,North,0,0.7,0.7,56,0.00,,,0.00,meteobridge,2013-06-30 21:13:00,
2013-06-30 17:23:00,84.6,66.6,29.84,North,0,5.4,5.4,55,0.00,,,0.00,meteobridge,2013-06-30 21:23:00,
2013-06-30 17:33:00,82.9,66.2,29.84,North,0,1.6,2.2,57,0.00,,,0.00,meteobridge,2013-06-30 21:33:00,
2013-06-30 17:44:00,82.8,66.6,29.84,North,0,2.2,2.2,58,0.00,,,0.00,meteobridge,2013-06-30 21:44:00,
2013-06-30 17:54:00,81.7,66.9,29.83,North,0,2.2,3.1,61,0.00,,,0.00,meteobridge,2013-06-30 21:54:00,
2013-06-30 18:15:00,81.0,67.6,29.84,NW,315,3.1,3.1,64,0.00,,,0.00,meteobridge,2013-06-30 22:15:00,
2013-06-30 19:01:00,80.2,67.5,29.85,South,180,2.2,-999.0,65,0.00,,,0.00,meteobridge,2013-06-30 23:01:00,
2013-06-30 19:14:00,79.7,66.9,29.85,South,180,2.2,-999.0,65,0.00,,,0.00,meteobridge,2013-06-30 23:14:00,
2013-06-30 19:26:00,79.3,66.6,29.85,West,270,0.0,-999.0,65,0.00,,,0.00,meteobridge,2013-06-30 23:26:00,
2013-06-30 19:36:00,79.2,66.4,29.85,South,180,0.0,-999.0,65,0.00,,,0.00,meteobridge,2013-06-30 23:36:00,
2013-06-30 20:01:00,77.7,66.4,29.86,North,0,3.8,3.8,68,0.00,,,0.00,meteobridge,2013-07-01 00:01:00,
2013-06-30 20:58:00,76.1,65.7,29.87,North,0,0.0,-999.0,70,0.00,,,0.00,meteobridge,2013-07-01 00:58:00,
2013-06-30 21:11:00,75.7,65.3,29.88,East,90,0.0,-999.0,70,0.00,,,0.00,meteobridge,2013-07-01 01:11:00,
2013-06-30 21:21:00,75.4,65.3,29.88,North,0,0.0,0.0,71,0.00,,,0.00,meteobridge,2013-07-01 01:21:00,
2013-06-30 21:32:00,75.4,65.7,29.89,North,0,0.0,0.0,72,0.00,,,0.00,meteobridge,2013-07-01 01:32:00,
2013-06-30 21:42:00,75.2,65.5,29.89,North,0,0.0,-999.0,72,0.00,,,0.00,meteobridge,2013-07-01 01:42:00,
2013-06-30 21:55:00,75.2,65.5,29.89,North,0,0.7,-999.0,72,0.00,,,0.00,meteobridge,2013-07-01 01:55:00,
2013-06-30 22:25:00,74.8,66.0,29.90,North,0,2.2,2.2,74,0.00,,,0.00,meteobridge,2013-07-01 02:25:00,
2013-06-30 22:36:00,74.5,65.7,29.90,North,0,2.2,2.2,74,0.00,,,0.00,meteobridge,2013-07-01 02:36:00,
2013-06-30 22:46:00,74.1,65.3,29.91,North,0,2.2,2.2,74,0.00,,,0.00,meteobridge,2013-07-01 02:46:00,
2013-06-30 22:56:00,73.8,65.3,29.91,North,0,2.2,2.2,75,0.00,,,0.00,meteobridge,2013-07-01 02:56:00,
2013-06-30 23:06:00,73.0,64.6,29.91,North,0,3.1,3.1,75,0.00,,,0.00,meteobridge,2013-07-01 03:06:00,
2013-06-30 23:16:00,72.9,64.8,29.91,South,180,0.0,0.0,76,0.00,,,0.00,meteobridge,2013-07-01 03:16:00,
2013-06-30 23:26:00,72.7,65.1,29.91,South,180,0.0,0.0,77,0.00,,,0.00,meteobridge,2013-07-01 03:26:00,
2013-06-30 23:36:00,72.5,64.9,29.92,North,0,0.0,0.0,77,0.00,,,0.00,meteobridge,2013-07-01 03:36:00,
2013-06-30 23:46:00,72.5,65.3,29.91,North,0,0.0,0.0,78,0.00,,,0.00,meteobridge,2013-07-01 03:46:00,
2013-06-30 23:56:00,72.1,65.3,29.91,North,0,0.0,0.0,79,0.00,,,0.00,meteobridge,2013-07-01 03:56:00,